TimeMST,TemperatureF,Dew PointF,Humidity,Sea Level PressureIn,VisibilityMPH,Wind Direction,Wind SpeedMPH,Gust SpeedMPH,PrecipitationIn,Events,Conditions,WindDirDegrees,DateUTC
12:53 AM,5.0,1.0,84,30.27,10.0,Calm,Calm,-,N/A,,Overcast,0,2012-12-31 07:53:00
1:53 AM,5.0,1.0,84,30.26,10.0,Calm,Calm,-,N/A,,Overcast,0,2012-12-31 08:53:00
2:53 AM,7.0,3.0,84,30.26,10.0,Calm,Calm,-,N/A,,Overcast,0,2012-12-31 09:53:00
3:03 AM,8.6,3.2,79,30.03,10.0,Calm,Calm,-,N/A,,Overcast,0,2012-12-31 10:03:00
3:53 AM,10.0,3.9,76,30.25,10.0,Calm,Calm,-,N/A,,Overcast,0,2012-12-31 10:53:00
4:53 AM,10.0,5.0,80,30.27,10.0,ESE,3.5,-,N/A,,Overcast,110,2012-12-31 11:53:00
5:00 AM,10.4,5.0,79,30.03,10.0,Calm,Calm,-,N/A,,Overcast,0,2012-12-31 12:00:00
5:53 AM,12.0,7.0,80,30.28,10.0,Calm,Calm,-,N/A,,Overcast,0,2012-12-31 12:53:00
6:53 AM,10.9,7.0,84,30.30,10.0,NW,3.5,-,N/A,,Overcast,310,2012-12-31 13:53:00
7:53 AM,10.9,6.1,81,30.31,10.0,North,4.6,-,N/A,,Overcast,10,2012-12-31 14:53:00
8:53 AM,9.0,5.0,84,30.34,10.0,Calm,Calm,-,N/A,,Overcast,0,2012-12-31 15:53:00
9:53 AM,12.9,7.0,77,30.34,10.0,Calm,Calm,-,N/A,,Overcast,0,2012-12-31 16:53:00
10:53 AM,16.0,8.1,71,30.33,10.0,NNW,5.8,-,N/A,,Overcast,340,2012-12-31 17:53:00
11:28 AM,15.8,8.6,73,30.07,10.0,Calm,Calm,-,N/A,,Scattered Clouds,0,2012-12-31 18:28:00
11:53 AM,16.0,8.1,71,30.32,10.0,Calm,Calm,-,N/A,,Clear,0,2012-12-31 18:53:00
12:53 PM,18.0,8.1,65,30.29,10.0,NW,3.5,-,N/A,,Clear,320,2012-12-31 19:53:00
1:53 PM,18.0,8.1,65,30.28,10.0,WNW,4.6,-,N/A,,Overcast,300,2012-12-31 20:53:00
2:53 PM,18.0,9.0,68,30.29,10.0,WNW,5.8,-,N/A,,Overcast,290,2012-12-31 21:53:00
3:53 PM,18.0,9.0,68,30.29,10.0,WNW,5.8,-,N/A,,Overcast,290,2012-12-31 22:53:00
4:53 PM,17.1,9.0,71,30.30,10.0,NW,5.8,-,N/A,,Overcast,310,2012-12-31 23:53:00
5:53 PM,17.1,9.0,71,30.30,10.0,NW,6.9,-,N/A,,Overcast,310,2013-01-01 00:53:00
6:53 PM,16.0,10.0,77,30.32,10.0,NW,8.1,-,N/A,,Overcast,320,2013-01-01 01:53:00
7:53 PM,16.0,10.0,77,30.34,10.0,WNW,3.5,-,N/A,,Overcast,300,2013-01-01 02:53:00
8:53 PM,16.0,10.0,77,30.36,10.0,NW,3.5,-,N/A,,Overcast,310,2013-01-01 03:53:00
9:53 PM,16.0,10.0,77,30.35,10.0,NNE,4.6,-,N/A,,Overcast,30,2013-01-01 04:53:00
10:53 PM,16.0,10.0,77,30.37,9.0,Calm,Calm,-,N/A,,Overcast,0,2013-01-01 05:53:00
11:53 PM,15.1,10.0,80,30.38,10.0,Calm,Calm,-,N/A,,Overcast,0,2013-01-01 06:53:00